Location: Chimay
(50.0486°N, 4.3171°E)
Time: 10:44:26
(UTC+00:00)

CENTAUR R/B - Pass Details

Date: 08 August 2020
Orbit: 754 x 1434 km, 63.5° (Epoch: 17 September)

Event Time Altitude Azimuth Distance (km) Brightness Sun altitude
Exits shadow 22:51:54 16° 231° (SW) 2,236 4.2 -23.0°
Maximum altitude 22:56:58 76° 315° (NW) 1,060 2.7 -23.2°
Drops below altitude 10° 23:04:18 10° 42° (NE) 3,094 5.5 -23.5°
Sets 23:07:17 0° 45° (NE) 4,162 6.3 -23.5°
